Home   Weather   Sidney   Past weeks

Flag for USA Past Weather in Sidney, Montana, USA — Yesterday and Last 2 Weeks

Now
-6 °F

Scattered clouds.


Feels Like: -6 °F
Forecast: -16 / -3 °F
Wind: No wind

Location: Sidney-Richland

Current Time: Dec 9, 2016 at 10:34:23 am

Latest Report: Dec 9, 2016 at 9:56 am


Visibility: 7 mi

Pressure: 30.82 "Hg (28.45 "Hg at 591m altitude)

Humidity: 78%

Dew Point: -11 °F

Location of SidneyLocation

Past Weather in Sidney — Graph

°F

Sidney Temperature Yesterday

Maximum temperature yesterday: 4 °F (at 12:56 pm)
Minimum temperature yesterday: -15 °F (at 11:56 pm)
Average temperature yesterday: -3 °F

High & Low Weather Summary for the Past Weeks

 TemperatureHumidityPressure
High50 °F (Nov 27, 1:56 pm)96% (Nov 28, 8:56 am)30.87 "Hg (Nov 28, 8:56 am)
Low-18 °F (Dec 9, 5:56 am)33% (Nov 27, 1:56 pm)29.22 "Hg (Nov 28, 2:56 am)
Average21 °F80%30.04 "Hg
* Reported Nov 24 8:56 am — Dec 9 8:56 am, Sidney, Weather by CustomWeather, © 2016

Note: Actual official high and low records may vary slightly from our data, if they occured in-between our weather recording intervals... More about our weather records

Advertising

Sidney Weather History for the Previous 24 Hours

Scroll right to see more
 ConditionsComfort  
Time TempWeatherWind HumidityBarometerVisibility
8:56 am
Fri, Dec 9
-13 °FIce fog.No wind82%30.82 "Hg5 mi
7:56 am-16 °FOvercast.No wind78%30.80 "Hg10 mi
6:56 am-18 °FPassing clouds.No wind77%30.80 "Hg10 mi
5:56 am-18 °FClear.No wind77%30.79 "Hg10 mi
3:56 am-17 °FClear.3 mph77%30.77 "Hg10 mi
2:56 am-16 °FClear.No wind82%30.77 "Hg10 mi
1:56 am-16 °FClear.5 mph78%30.76 "Hg10 mi
12:56 am-15 °FClear.3 mph77%30.77 "Hg10 mi
11:56 pm
Thu, Dec 8
-15 °FClear.3 mph77%30.78 "Hg10 mi
10:56 pm-13 °FClear.5 mph78%30.78 "Hg10 mi
9:56 pm-13 °FClear.3 mph78%30.78 "Hg10 mi
8:56 pm-12 °FClear.3 mph81%30.79 "Hg10 mi
7:56 pmN/AClear.6 mphN/A30.78 "Hg10 mi
6:56 pmN/AClear.6 mphN/A30.79 "Hg10 mi
5:56 pm-6 °FClear.3 mph75%30.81 "Hg10 mi
4:56 pm-7 °FClear.No wind75%30.82 "Hg10 mi
3:56 pm-1 °FSunny.3 mph71%30.82 "Hg10 mi
2:56 pm3 °FSunny.7 mph66%30.84 "Hg10 mi
1:56 pm4 °FSunny.7 mph63%30.84 "Hg10 mi
12:56 pm4 °FSunny.6 mph66%30.84 "Hg10 mi
11:56 am3 °FSunny.9 mph69%30.85 "Hg8 mi
10:56 am2 °FPartly sunny.10 mph72%30.87 "Hg10 mi
Weather by CustomWeather, © 2016

See weather overviewHow to use our weather pages